Simultaneous Nadir Overpasses (SNOs) Predictions

Prediction of SNOs between METOP-A and TERRA Satellite Orbit:

Table of predicted SNOs for the next 14.0 days since TLE Epoch: 8/18/2018
Index Date (METOP-A) Time (METOP-A) Lat,Lon (METOP-A) SZA (METOP-A ) Date (TERRA) Time (TERRA) Lat,Lon (TERRA) SZA (TERRA ) Distance(km) Time Diff (sec)
1 08/18/2018 17:24:24 -81.42, 148.51 108.55 08/18/2018 17:24:51 -81.43, 148.45 108.54 1.20 27
2 08/18/2018 18:15:04 81.42, -43.99 71.49 08/18/2018 18:14:18 81.42, -44.17 71.44 3.02 46
3 08/21/2018 12:58:40 -81.42,-145.28 107.63 08/21/2018 12:59:05 -81.42,-145.23 107.61 0.84 25
4 08/21/2018 13:49:19 81.42, 22.58 72.45 08/21/2018 13:48:31 81.43, 22.53 72.42 1.10 48
5 08/24/2018 08:32:57 -81.42, -79.08 106.69 08/24/2018 08:33:20 -81.42, -78.94 106.67 2.49 23
6 08/24/2018 09:23:36 81.42, 88.75 73.38 08/24/2018 09:22:46 81.42, 88.80 73.36 0.89 50
7 08/27/2018 04:07:12 -81.42, -12.09 105.64 08/27/2018 04:07:34 -81.43, -12.29 105.65 3.19 22
8 08/27/2018 04:57:52 81.42, 155.31 74.39 08/27/2018 04:57:00 81.43, 155.44 74.38 2.22 52
9 08/29/2018 23:41:29 -81.42, 54.08 104.65 08/29/2018 23:41:49 -81.42, 53.94 104.67 2.43 20




NCC Satellite Simultaneous Nadir Overpasses (SNOs) Prediction Service
